Regional Weather Roundup
Issued by NWS

Home | Current Version | Previous Version | Graphics & Text | Print | Product List | Glossary On
Versions: 1 2 3 4 5 6 7 8 9 10 11 12 13 14 15 16 17 18 19 20 21 22 23 24 25 26 27
000
ASUS45 KCYS 192110
RWRWY

WYOMING REGIONAL WEATHER ROUNDUP
NATIONAL WEATHER SERVICE CHEYENNE WY
200 PM MST SUN NOV 19 2017

NOTE:  "FAIR" INDICATES FEW OR NO CLOUDS BELOW 12,000 FEET
WITH NO SIGNIFICANT WEATHER AND/OR OBSTRUCTIONS TO VISIBILITY.

WYZ001-192200-
YELLOWSTONE NATIONAL PARK

CITY           SKY/WX    TMP DP  RH WIND       PRES   REMARKS
LK YELLOWSTONE   N/A     27  18  69 CALM      30.09F
W YELLOWSTONE  NOT AVBL

$$
WYZ002>013-054>058-071-098>099-192200-
NORTHERN WYOMING

CITY           SKY/WX    TMP DP  RH WIND       PRES   REMARKS
JACKSON        FAIR      28  17  63 SW6       30.11F WCI  22
CODY           FAIR      48   3  15 MISG      29.90F
GREYBULL       FAIR      36  23  59 S5        29.92F WCI  32
WORLAND        FAIR      35  26  69 NW5       29.93F WCI  31
SHERIDAN       FAIR      51  30  44 N3        29.79F
BUFFALO        FAIR      34  19  54 W9        29.82F WCI  27
GILLETTE       FAIR      51  15  23 SW23G29   29.81F
HULETT         FAIR      50  19  29 S16G22    29.83F
NEWCASTLE      FAIR      45  16  31 SE7       29.90F

$$
WYZ014>020-022>026-101>103-192200-
CENTRAL WYOMING

CITY           SKY/WX    TMP DP  RH WIND       PRES   REMARKS
BIG PINEY      FAIR      28  17  63 W5        30.13F WCI  23
PINEDALE       FAIR      36  19  51 SE9       30.13S WCI  29
DUBOIS         FAIR      41   7  24 NW14G25   29.97F
LANDER         FAIR      36  21  54 W3        29.96F
RIVERTON       FAIR      33  22  63 CALM      29.98F
CASPER         FAIR      43  18  36 SW28G36   29.96F
DOUGLAS        FAIR      51  14  22 W14G26    29.92F

$$
WYZ021-027>030-104>119-192200-
SOUTHERN WYOMING

CITY           SKY/WX    TMP DP  RH WIND       PRES   REMARKS
EVANSTON       FAIR      31  22  69 S7        30.14F WCI  24
KEMMERER       FAIR      32  14  47 NW8       30.14F WCI  25
FORT BRIDGER   FAIR      27  20  77 CALM      30.16F
ROCK SPRINGS   FAIR      32  19  58 CALM      30.14F
DIXON          FAIR      37  20  51 SW10      30.20F WCI  29
RAWLINS        FAIR      36  17  46 SW26G32   30.10F WCI  24
SARATOGA       FAIR      36  25  64 S9        30.14F WCI  29
LARAMIE        FAIR      40  15  36 SW15      30.07F WCI  32
CHEYENNE       FAIR      49   5  16 W15G26    30.03F
TORRINGTON     FAIR      56   5  13 W24G36    29.93F
PINE BLUFFS    FAIR      57   3  11 W21G31    30.00F

$$




USA.gov is the U.S. government's official web portal to all federal, state and local government web resources and services.